SUR4070 SPCL-SPJC

Flight info

Callsign SUR4070
Flight time 0h 56m
Altitude 24000
Route COCOS1 COCOS UT313 RENON PADIS2
Aircraft E175/L-S/1200

Departure

Time 2026-05-04 20:56
Airport Cap FAP David Abenzur Rengifo International Airport (SPCL)

Arrival

Time 2026-05-04 21:52
Airport Jorge Chávez International Airport (SPJC)
Time Latitude Longitude Altitude Speed Heading
2026-05-04 20:45 -8.38504 -74.57454 505 ft 0 kts 274°
2026-05-04 20:51 -8.38504 -74.57455 505 ft 0 kts 274°
2026-05-04 20:52 -8.38503 -74.57462 505 ft 0 kts 274°
2026-05-04 20:52 -8.38503 -74.57466 505 ft 4 kts 274°
2026-05-04 20:52 -8.38498 -74.57516 505 ft 7 kts 280°
2026-05-04 20:52 -8.38485 -74.57564 505 ft 0 kts 284°
2026-05-04 20:53 -8.38471 -74.57610 505 ft 8 kts 289°
2026-05-04 20:53 -8.38466 -74.57669 505 ft 9 kts 233°
2026-05-04 20:53 -8.38530 -74.57694 505 ft 10 kts 198°
2026-05-04 20:54 -8.38608 -74.57721 505 ft 14 kts 198°
2026-05-04 20:54 -8.38730 -74.57761 505 ft 20 kts 199°
2026-05-04 20:54 -8.38844 -74.57801 505 ft 15 kts 199°
2026-05-04 20:54 -8.38919 -74.57831 505 ft 4 kts 252°
2026-05-04 20:55 -8.38910 -74.57839 505 ft 0 kts 11°
2026-05-04 20:55 -8.38847 -74.57822 506 ft 40 kts 19°
2026-05-04 20:55 -8.38318 -74.57627 506 ft 118 kts 18°
2026-05-04 20:56 -8.37363 -74.57272 656 ft 164 kts 20°
2026-05-04 20:56 -8.36187 -74.56818 964 ft 204 kts 21°
2026-05-04 20:56 -8.34755 -74.56253 1512 ft 229 kts 21°
2026-05-04 20:56 -8.33211 -74.55868 2065 ft 241 kts 355°
2026-05-04 20:57 -8.31643 -74.56477 2482 ft 251 kts 319°
2026-05-04 20:57 -8.30717 -74.57979 2904 ft 256 kts 283°
2026-05-04 20:57 -8.30864 -74.59759 3316 ft 262 kts 246°
2026-05-04 20:57 -8.32009 -74.61159 3734 ft 267 kts 220°
2026-05-04 20:58 -8.33400 -74.62431 4123 ft 268 kts 227°
2026-05-04 20:58 -8.34646 -74.63810 4483 ft 270 kts 231°
2026-05-04 20:58 -8.35852 -74.65285 4850 ft 272 kts 232°
2026-05-04 20:58 -8.37022 -74.66787 5213 ft 274 kts 233°
2026-05-04 20:59 -8.38186 -74.68318 5579 ft 276 kts 233°
2026-05-04 20:59 -8.39340 -74.69852 5942 ft 278 kts 233°
2026-05-04 20:59 -8.40504 -74.71410 6308 ft 279 kts 233°
2026-05-04 20:59 -8.41659 -74.72960 6673 ft 280 kts 233°
2026-05-04 21:00 -8.42836 -74.74540 7040 ft 278 kts 233°
2026-05-04 21:00 -8.43998 -74.76102 7404 ft 280 kts 233°
2026-05-04 21:00 -8.45162 -74.77666 7765 ft 281 kts 232°
2026-05-04 21:00 -8.46345 -74.79257 8132 ft 283 kts 232°
2026-05-04 21:01 -8.47521 -74.80839 8492 ft 284 kts 232°
2026-05-04 21:01 -8.48714 -74.82444 8858 ft 286 kts 232°
2026-05-04 21:01 -8.49906 -74.84046 9220 ft 287 kts 232°
2026-05-04 21:01 -8.51110 -74.85667 9584 ft 289 kts 232°
2026-05-04 21:02 -8.52323 -74.87299 9945 ft 291 kts 232°
2026-05-04 21:02 -8.53565 -74.88969 10337 ft 308 kts 232°
2026-05-04 21:02 -8.54891 -74.90753 10738 ft 329 kts 232°
2026-05-04 21:02 -8.56293 -74.92641 11126 ft 340 kts 232°
2026-05-04 21:03 -8.57730 -74.94577 11498 ft 344 kts 232°
2026-05-04 21:03 -8.59179 -74.96528 11864 ft 346 kts 231°
2026-05-04 21:03 -8.60626 -74.98476 12227 ft 348 kts 232°
2026-05-04 21:03 -8.62070 -75.00421 12585 ft 350 kts 231°
2026-05-04 21:04 -8.63528 -75.02385 12952 ft 352 kts 231°
2026-05-04 21:04 -8.65015 -75.04388 13319 ft 356 kts 231°
2026-05-04 21:04 -8.66503 -75.06393 13678 ft 357 kts 231°
2026-05-04 21:04 -8.68000 -75.08411 14036 ft 360 kts 231°
2026-05-04 21:05 -8.69500 -75.10432 14398 ft 363 kts 231°
2026-05-04 21:05 -8.71019 -75.12479 14764 ft 364 kts 231°
2026-05-04 21:05 -8.72540 -75.14529 15123 ft 368 kts 231°
2026-05-04 21:05 -8.74094 -75.16626 15495 ft 371 kts 231°
2026-05-04 21:06 -8.75629 -75.18697 15855 ft 373 kts 231°
2026-05-04 21:06 -8.77198 -75.20812 16213 ft 377 kts 231°
2026-05-04 21:06 -8.78768 -75.22929 16578 ft 379 kts 231°
2026-05-04 21:06 -8.80361 -75.25079 16957 ft 384 kts 231°
2026-05-04 21:07 -8.81959 -75.27235 17308 ft 389 kts 231°
2026-05-04 21:07 -8.83587 -75.29433 17672 ft 389 kts 231°
2026-05-04 21:07 -8.85206 -75.31619 18029 ft 391 kts 232°
2026-05-04 21:07 -8.86845 -75.33802 18383 ft 392 kts 227°
2026-05-04 21:08 -8.88977 -75.35509 18757 ft 387 kts 207°
2026-05-04 21:08 -8.91348 -75.36787 19124 ft 390 kts 205°
2026-05-04 21:08 -8.93784 -75.38054 19486 ft 392 kts 205°
2026-05-04 21:08 -8.96190 -75.39294 19835 ft 393 kts 205°
2026-05-04 21:09 -8.98656 -75.40562 20196 ft 396 kts 205°
2026-05-04 21:09 -9.01091 -75.41813 20542 ft 397 kts 205°
2026-05-04 21:09 -9.03560 -75.43081 20887 ft 401 kts 205°
2026-05-04 21:09 -9.06062 -75.44366 21240 ft 403 kts 205°
2026-05-04 21:10 -9.08573 -75.45656 21592 ft 405 kts 205°
2026-05-04 21:10 -9.11122 -75.46966 21951 ft 408 kts 205°
2026-05-04 21:10 -9.13643 -75.48261 22298 ft 410 kts 205°
2026-05-04 21:10 -9.16180 -75.49564 22670 ft 412 kts 206°
2026-05-04 21:11 -9.18747 -75.50884 23043 ft 414 kts 206°
2026-05-04 21:11 -9.21309 -75.52200 23414 ft 417 kts 206°
2026-05-04 21:11 -9.23911 -75.53538 23792 ft 418 kts 206°
2026-05-04 21:11 -9.26511 -75.54874 24021 ft 422 kts 206°
2026-05-04 21:12 -9.29113 -75.56213 24058 ft 421 kts 206°
2026-05-04 21:12 -9.31704 -75.57546 24069 ft 421 kts 206°
2026-05-04 21:12 -9.34332 -75.58898 24086 ft 420 kts 206°
2026-05-04 21:12 -9.36953 -75.60246 24105 ft 420 kts 206°
2026-05-04 21:13 -9.39562 -75.61590 24112 ft 421 kts 206°
2026-05-04 21:13 -9.42144 -75.62919 24131 ft 421 kts 206°
2026-05-04 21:13 -9.44763 -75.64267 24165 ft 421 kts 206°
2026-05-04 21:13 -9.47360 -75.65604 24171 ft 420 kts 206°
2026-05-04 21:14 -9.49975 -75.66951 24233 ft 419 kts 206°
2026-05-04 21:14 -9.52561 -75.68282 24279 ft 418 kts 206°
2026-05-04 21:14 -9.55183 -75.69633 24299 ft 419 kts 206°
2026-05-04 21:14 -9.57789 -75.70976 24342 ft 418 kts 206°
2026-05-04 21:15 -9.60367 -75.72304 24393 ft 418 kts 206°
2026-05-04 21:15 -9.62956 -75.73640 24409 ft 418 kts 206°
2026-05-04 21:15 -9.65556 -75.74979 24440 ft 419 kts 206°
2026-05-04 21:15 -9.68157 -75.76321 24460 ft 418 kts 206°
2026-05-04 21:16 -9.70724 -75.77645 24486 ft 419 kts 206°
2026-05-04 21:16 -9.73309 -75.78978 24515 ft 418 kts 206°
2026-05-04 21:16 -9.75901 -75.80315 24548 ft 418 kts 206°
2026-05-04 21:16 -9.78492 -75.81652 24548 ft 417 kts 206°
2026-05-04 21:17 -9.81066 -75.82980 24539 ft 416 kts 206°
2026-05-04 21:17 -9.83641 -75.84309 24529 ft 418 kts 206°
2026-05-04 21:17 -9.86226 -75.85644 24545 ft 417 kts 207°
2026-05-04 21:17 -9.88836 -75.86991 24545 ft 417 kts 207°
2026-05-04 21:18 -9.91426 -75.88329 24539 ft 417 kts 206°
2026-05-04 21:18 -9.94031 -75.89674 24547 ft 418 kts 206°
2026-05-04 21:18 -9.96604 -75.91003 24558 ft 418 kts 206°
2026-05-04 21:18 -9.99207 -75.92348 24599 ft 415 kts 207°
2026-05-04 21:19 -10.01749 -75.93663 24619 ft 416 kts 207°
2026-05-04 21:19 -10.04356 -75.95010 24627 ft 415 kts 207°
2026-05-04 21:19 -10.06934 -75.96343 24641 ft 415 kts 207°
2026-05-04 21:19 -10.09493 -75.97666 24638 ft 416 kts 206°
2026-05-04 21:20 -10.12069 -75.98998 24664 ft 417 kts 207°
2026-05-04 21:20 -10.14662 -76.00339 24677 ft 416 kts 206°
2026-05-04 21:20 -10.17249 -76.01678 24670 ft 416 kts 207°
2026-05-04 21:20 -10.19808 -76.03002 24683 ft 417 kts 206°
2026-05-04 21:21 -10.22466 -76.04378 24684 ft 431 kts 207°
2026-05-04 21:21 -10.25181 -76.05783 24709 ft 443 kts 207°
2026-05-04 21:21 -10.27956 -76.07220 24728 ft 453 kts 207°
2026-05-04 21:21 -10.30786 -76.08686 24729 ft 456 kts 207°
2026-05-04 21:22 -10.33623 -76.10156 24747 ft 456 kts 207°
2026-05-04 21:22 -10.36420 -76.11604 24774 ft 457 kts 207°
2026-05-04 21:22 -10.39282 -76.13088 24765 ft 455 kts 207°
2026-05-04 21:22 -10.42083 -76.14539 24772 ft 456 kts 207°
2026-05-04 21:23 -10.44927 -76.16013 24784 ft 456 kts 207°
2026-05-04 21:23 -10.47739 -76.17471 24790 ft 455 kts 207°
2026-05-04 21:23 -10.50590 -76.18950 24790 ft 456 kts 207°
2026-05-04 21:23 -10.53435 -76.20425 24790 ft 457 kts 207°
2026-05-04 21:24 -10.56268 -76.21895 24790 ft 457 kts 207°
2026-05-04 21:24 -10.59077 -76.23353 24791 ft 458 kts 207°
2026-05-04 21:24 -10.61927 -76.24832 24797 ft 456 kts 207°
2026-05-04 21:24 -10.64752 -76.26299 24800 ft 456 kts 207°
2026-05-04 21:25 -10.67618 -76.27787 24802 ft 458 kts 207°
2026-05-04 21:25 -10.70441 -76.29253 24807 ft 458 kts 207°
2026-05-04 21:25 -10.73297 -76.30737 24810 ft 458 kts 207°
2026-05-04 21:25 -10.76112 -76.32199 24811 ft 457 kts 206°
2026-05-04 21:26 -10.79039 -76.33546 24815 ft 457 kts 203°
2026-05-04 21:26 -10.81940 -76.34841 24810 ft 457 kts 203°
2026-05-04 21:26 -10.84844 -76.36143 24814 ft 458 kts 203°
2026-05-04 21:26 -10.87790 -76.37465 24820 ft 456 kts 203°
2026-05-04 21:27 -10.90677 -76.38761 24828 ft 458 kts 203°
2026-05-04 21:27 -10.93603 -76.40075 24825 ft 459 kts 203°
2026-05-04 21:27 -10.96524 -76.41387 24827 ft 458 kts 203°
2026-05-04 21:27 -10.99462 -76.42707 24832 ft 458 kts 203°
2026-05-04 21:28 -11.02386 -76.44021 24834 ft 459 kts 203°
2026-05-04 21:28 -11.05314 -76.45337 24845 ft 460 kts 203°
2026-05-04 21:28 -11.08228 -76.46648 24858 ft 459 kts 203°
2026-05-04 21:28 -11.11178 -76.47974 24870 ft 458 kts 203°
2026-05-04 21:29 -11.14091 -76.49284 24887 ft 458 kts 203°
2026-05-04 21:29 -11.17031 -76.50607 24904 ft 457 kts 203°
2026-05-04 21:29 -11.19921 -76.51907 24901 ft 459 kts 203°
2026-05-04 21:29 -11.22877 -76.53238 24895 ft 459 kts 203°
2026-05-04 21:30 -11.25796 -76.54552 24882 ft 458 kts 203°
2026-05-04 21:30 -11.28727 -76.55872 24874 ft 459 kts 203°
2026-05-04 21:30 -11.31664 -76.57194 24855 ft 460 kts 203°
2026-05-04 21:30 -11.34579 -76.58508 24839 ft 460 kts 203°
2026-05-04 21:31 -11.40425 -76.61141 24810 ft 460 kts 204°
2026-05-04 21:31 -11.43366 -76.62468 24800 ft 459 kts 203°
2026-05-04 21:31 -11.46202 -76.63746 24814 ft 459 kts 203°
2026-05-04 21:32 -11.49167 -76.65084 24782 ft 461 kts 204°
2026-05-04 21:32 -11.52084 -76.66399 24750 ft 460 kts 204°
2026-05-04 21:32 -11.54999 -76.67715 24761 ft 460 kts 204°
2026-05-04 21:32 -11.57945 -76.69044 24739 ft 460 kts 204°
2026-05-04 21:33 -11.60910 -76.70383 24735 ft 461 kts 204°
2026-05-04 21:33 -11.63828 -76.71700 24700 ft 460 kts 204°
2026-05-04 21:33 -11.66770 -76.73029 24694 ft 461 kts 204°
2026-05-04 21:33 -11.69667 -76.74337 24601 ft 449 kts 204°
2026-05-04 21:34 -11.72480 -76.75609 24365 ft 426 kts 204°
2026-05-04 21:34 -11.75127 -76.76804 23998 ft 409 kts 204°
2026-05-04 21:34 -11.77675 -76.77956 23643 ft 393 kts 203°
2026-05-04 21:34 -11.80161 -76.79080 23288 ft 379 kts 203°
2026-05-04 21:35 -11.82506 -76.80141 22935 ft 366 kts 203°
2026-05-04 21:35 -11.84812 -76.81184 22569 ft 355 kts 203°
2026-05-04 21:35 -11.87046 -76.82194 22219 ft 344 kts 203°
2026-05-04 21:35 -11.89195 -76.83167 21871 ft 334 kts 203°
2026-05-04 21:36 -11.91273 -76.84107 21401 ft 316 kts 202°
2026-05-04 21:36 -11.93232 -76.84994 21023 ft 299 kts 202°
2026-05-04 21:36 -11.95089 -76.85834 20678 ft 285 kts 202°
2026-05-04 21:36 -11.96855 -76.86633 20340 ft 273 kts 202°
2026-05-04 21:37 -11.98587 -76.87418 20013 ft 270 kts 202°
2026-05-04 21:37 -12.00297 -76.88192 19699 ft 270 kts 203°
2026-05-04 21:37 -12.02015 -76.88970 19364 ft 262 kts 202°
2026-05-04 21:37 -12.03621 -76.89697 19210 ft 249 kts 202°
2026-05-04 21:38 -12.05153 -76.90392 19157 ft 230 kts 202°
2026-05-04 21:38 -12.06617 -76.91055 18759 ft 232 kts 202°
2026-05-04 21:38 -12.08094 -76.91724 18360 ft 231 kts 203°
2026-05-04 21:38 -12.09551 -76.92384 17937 ft 231 kts 203°
2026-05-04 21:39 -12.11007 -76.93044 17509 ft 231 kts 202°
2026-05-04 21:39 -12.12430 -76.93689 17084 ft 230 kts 203°
2026-05-04 21:39 -12.13892 -76.94352 16639 ft 229 kts 203°
2026-05-04 21:39 -12.15352 -76.95014 16224 ft 229 kts 203°
2026-05-04 21:40 -12.16803 -76.95672 15788 ft 228 kts 203°
2026-05-04 21:40 -12.18242 -76.96324 15343 ft 227 kts 203°
2026-05-04 21:40 -12.19680 -76.96976 14885 ft 225 kts 203°
2026-05-04 21:40 -12.21119 -76.97629 14491 ft 224 kts 203°
2026-05-04 21:41 -12.22529 -76.98286 14078 ft 223 kts 208°
2026-05-04 21:41 -12.23513 -76.99463 13606 ft 223 kts 251°
2026-05-04 21:41 -12.23472 -77.00992 13167 ft 217 kts 294°
2026-05-04 21:41 -12.22463 -77.02060 12732 ft 211 kts 333°
2026-05-04 21:42 -12.21143 -77.02616 12346 ft 208 kts 340°
2026-05-04 21:42 -12.19790 -77.03081 11908 ft 207 kts 343°
2026-05-04 21:42 -12.18512 -77.03681 11427 ft 209 kts 318°
2026-05-04 21:42 -12.17906 -77.04984 10970 ft 210 kts 275°
2026-05-04 21:43 -12.18358 -77.06370 10525 ft 213 kts 231°
2026-05-04 21:43 -12.19649 -77.07076 10096 ft 214 kts 187°
2026-05-04 21:43 -12.21054 -77.06709 9655 ft 213 kts 143°
2026-05-04 21:43 -12.22092 -77.05674 9259 ft 209 kts 132°
2026-05-04 21:44 -12.23098 -77.04584 8836 ft 209 kts 132°
2026-05-04 21:44 -12.24092 -77.03511 8409 ft 209 kts 132°
2026-05-04 21:44 -12.25093 -77.02432 7968 ft 209 kts 132°
2026-05-04 21:44 -12.26086 -77.01361 7528 ft 209 kts 132°
2026-05-04 21:45 -12.27109 -77.00283 7075 ft 209 kts 131°
2026-05-04 21:45 -12.27630 -76.98962 6582 ft 204 kts 88°
2026-05-04 21:45 -12.27145 -76.97691 6055 ft 196 kts 45°
2026-05-04 21:45 -12.26079 -76.97038 5638 ft 192 kts 12°
2026-05-04 21:46 -12.24908 -76.97223 5276 ft 192 kts 333°
2026-05-04 21:46 -12.23092 -76.98740 4962 ft 166 kts 312°
2026-05-04 21:46 -12.22378 -76.99610 4923 ft 158 kts 312°
2026-05-04 21:47 -12.21632 -77.00444 4679 ft 159 kts 318°
2026-05-04 21:47 -12.20803 -77.01199 4454 ft 158 kts 320°
2026-05-04 21:47 -12.19991 -77.01934 4208 ft 156 kts 320°
2026-05-04 21:47 -12.19148 -77.02653 3854 ft 159 kts 323°
2026-05-04 21:48 -12.18280 -77.03359 3502 ft 159 kts 323°
2026-05-04 21:48 -12.17388 -77.04012 3153 ft 158 kts 328°
2026-05-04 21:48 -12.16468 -77.04631 2814 ft 157 kts 328°
2026-05-04 21:48 -12.15524 -77.05181 2459 ft 156 kts 336°
2026-05-04 21:49 -12.14533 -77.05637 2118 ft 155 kts 336°
2026-05-04 21:49 -12.13592 -77.06131 1859 ft 152 kts 334°
2026-05-04 21:49 -12.12607 -77.06557 1822 ft 152 kts 335°
2026-05-04 21:49 -12.11625 -77.06943 1854 ft 154 kts 336°
2026-05-04 21:50 -12.10617 -77.07369 1828 ft 156 kts 334°
2026-05-04 21:50 -12.09633 -77.07809 1682 ft 157 kts 333°
2026-05-04 21:50 -12.08650 -77.08257 1466 ft 158 kts 333°
2026-05-04 21:50 -12.07677 -77.08730 1142 ft 158 kts 333°
2026-05-04 21:51 -12.06728 -77.09188 784 ft 154 kts 332°
2026-05-04 21:51 -12.05824 -77.09642 493 ft 149 kts 332°
2026-05-04 21:51 -12.04906 -77.10100 370 ft 147 kts 333°
2026-05-04 21:51 -12.03962 -77.10560 221 ft 152 kts 331°
2026-05-04 21:52 -12.03051 -77.11013 128 ft 126 kts 332°
2026-05-04 21:52 -12.02437 -77.11317 128 ft 62 kts 336°
2026-05-04 21:52 -12.02227 -77.11398 128 ft 16 kts 26°
2026-05-04 21:52 -12.02214 -77.11375 128 ft 0 kts 107°
2026-05-04 21:53 -12.02227 -77.11348 128 ft 6 kts 122°
2026-05-04 21:53 -12.02262 -77.11301 128 ft 9 kts 132°
2026-05-04 21:53 -12.02312 -77.11237 128 ft 12 kts 125°
2026-05-04 21:54 -12.02350 -77.11156 128 ft 12 kts 94°
2026-05-04 21:54 -12.02348 -77.11073 128 ft 10 kts 84°
2026-05-04 21:54 -12.02327 -77.11010 128 ft 7 kts 66°
2026-05-04 21:54 -12.02318 -77.10989 128 ft 0 kts 66°